Zurück zum Katalog

STARLINK-3505

AktivKommunikationVLEO
NORAD 51750·PAYLOAD·🇺🇸 United States

Gestartet Feb 21, 2022 von Cape Canaveral Space Force Station

Loading…

Nächste Überflüge (nächste 24 Stunden)

TLE

AktuellSource: CelesTrak SupGP

Epoche: Sep 14, 2026, 21:23 UTC

1 51750C 22016AN  26257.89145833 -.00030226  00000+0 -97173-3 0  2573
2 51750  53.1587 167.9883 0001003  91.8159 282.0559 15.31726017    13

Verfolge STARLINK-3505 in Echtzeit mit AllMySat

Download on the App Store